Погода Улан-Удэ

Погода Улан-Удэ : погода сейчас, прогноз погоды и архив. Всё, что Вы хотите узнать о погоде Улан-Удэ!

Поиск расширенной информации на нашем сайте:

Другие новости

Новости СМИ2

Главная страница сайта

Новости сайта

03.07.2017

Напоминаем, что на нашем специализированном сайте Метеоцентр.Азия вы можете получить высокодетализированные автоматические прогнозы погоды по пунктам России, СНГ и мира в авиационном формате (включающие направление и скорость ветра, видимость, явления погоды, количество и форму облачности, нижнюю и верхнюю границу облачности).


Погода Улан-Удэ - сегодня

Время (UTC), дата Ветер
(°,м/с) 
Видим.   Явления Облачность Т
(°С)
Тd
(°С)
f(%) Тe
(°С)
Pmin
(гПа)
dP
(гПа)
Po
(мм)
O2
(г/м3)
Тmin Tmax R s Состояние
почвы
18 16.10.18 080 (В) 20000 м  дым  ясно 
-1.7 -4.3 82 -4  1026.5  -0.4  722  293           
21 16.10.18 080 (В) 20000 м  дым  ясно 
-3.3 -5.5 85 -3  1027.2  0.3  722  295           
00 17.10.18 110 (В) 20000 м  дым  ясно 
-3.7 -5.9 85 -5  1027.5  0.1  722  296  -3.8         
03 17.10.18 100 (В) 10 км  дым  ясно 
+3 -4.4 58 +2  1025.5  -0.3  722  288           
06 17.10.18 070 (В) 10 км  дым  ясно 
+10 -3.4 39 +11  1022.2  -1.6  721  280           
09 17.10.18 100 (В) 20000 м  дым  ясно 
+11.5 -2.6 37 +12  1020.7  -1.6  720  279           
15 17.10.18 090 (В) 20000 м  дым  ясно 
+1.3 -2.6 75 +1  1024.9  0.6  721  290           
18 17.10.18 080 (В) 20000 м  дым  ясно 
-1.1 -3.6 83 -2  1025.9  0.4  722  292           
21 17.10.18 080 (В) 10 км  дым  ясно 
-2.9 -4.5 89 -4  1026.4  722  294           
00 18.10.18 090 (В) 10 км  дым  3/0 верхняя 
[Ci fib]
-3.4 -5.1 88 -5  1027.4  0.8  722  295  -3.6         
03 18.10.18 090 (В) 10 км  дым  ясно 
+2.8 -3.2 65 +2  1025.9  722  288           
06 18.10.18 220 (ЮЗ) 20000 м  дым  ясно 
+11 -0.9 44 +12  1021.6  -2.3  721  279           
09 18.10.18 170 (Ю) 20000 м    3/0 верхняя 
[Ci fib]
+13.5 -1.9 34 +15  1019.5  -1.5  720  276           
15 18.10.18 100 (В) 20000 м  дым  6/0 верхняя 
[Ci fib]
+1.7 -2.8 72 +1  1023  0.2  720  289           
18 18.10.18 100 (В) 20000 м  дым  6/0 верхняя 
[Ci fib]
-1.5 -4.3 81 -2  1024  0.2  720  292           
21 18.10.18 110 (В) 20000 м    3/0 верхняя 
[Ci fib]
-2.5 -5 83 -4  1024  -0.3  720  293           
00 19.10.18 100 (В) 10 км  дым  10/0 верхняя 
[Ci fib]
-3.6 -5.7 85 -5  1024.8  0.5  720  295  -4         
03 19.10.18 100 (В) 20000 м  дым  6/0 верхняя 
[Ci fib]
+2.3 -4.2 62 +2  1022.7  -0.6  720  288           
06 19.10.18 060 (СВ) 10 км  дым  3/0 верхняя 
[Ci fib]
+12.3 -6.5 26 +14  1017.5  -2.8  718  277           
09 19.10.18 090 (В) 10 км  дым  6/0 верхняя 
[Ci fib]
+12.5 -7.1 25 +13  1015.6  -1.7  717  277           
12 19.10.18 090 (В) 10 км  дым  10/0 верхняя 
[Ci fib]
+5.5 -6.2 43 +4  1016.8  -0.4  716  283    +14.1       
21 19.10.18 080 (В) 20000 м  дым  10/0 верхняя 
[Ci sp]
-0.6 -8 57 -2  1015.8  -1.3  715  289           
00 20.10.18 060 (СВ) 10 км  дым  10/8 1000 м кучево-дожд., верхняя 
[Cb cap|Ci sp]
+0.2 -7.7 55 -1  1015.3  -0.3  714  288  -0.7         
03 20.10.18 тихо ()   4000 м  слаб. ливневой снег  10/10 600 м кучево-дожд. 
[Cb cap]
+0.6 -3.6 73 +1  1016.3  1.1  715  288           
06 20.10.18 330 (СЗ) 10 км  дым{ливн. осадки}  10/10 600 м кучево-дожд. 
[Cb cap]
+0.8 -1.1 87 +1  1016.6  0.3  715  287           
Время (UTC), дата Ветер
(°,м/с) 
Видим.   Явления Облачность Т
(°С)
Тd
(°С)
f(%) Тe
(°С)
Pmin
(гПа)
dP
(гПа)
Po
(мм)
O2
(г/м3)
Тmin Tmax R s Состояние
почвы

Для получения пояснительной информации подведите курсор к названию столбца.

ПОГОДА Улан-Удэ - архив

Всё, что Вы хотите узнать о погоде Улан-Удэ - удобно и подробно!

Выберите нужную дату (начиная с 1 января 2015* года) и нажмите кнопку "Найти".
Будут отображены архивные сводки погоды по пункту Улан-Удэ, начиная с указанной даты.


Отображать данные в формате CSV (для использования в таблицах Excel)


Внимание! Наш архив погоды предназначен исключительно для личного некоммерческого использования в познавательных целях. Если Вам необходимы официальные справки о состоянии погоды (для производственных, юридических, коммерческих и т.п. целей), обращайтесь в органы Росгидромета.

*Примечание: данная дата относится к архиву по метеостанциям СССР (Россия, СНГ, Балтия).
Архив по метеостанциям Зарубежной Европы и Азии (кроме Китая) хранится 10 дней, по другим регионам земного шара (Китай, Африка, Америка, Австралия, Океания) - 1 день.

Улан-Удэ - район местоположения метеостанции


Название, широта, долгота, высота метеостанции:
Улан-Удэ (город) 51.8°ш. 107.5°д. 530 м над ур. моря [Российская Федерация]

Дополнительная информация

В oтличие oт бoльшинства пoгoдных сайтoв мы публикуем пoдрoбную метеoинфoрмацию в детальнoм прoфессиoнальнoм фoрмате.

Характеристики температуры и влажнoсти вoздуха измеряются на высoте 2 м в тени вдали oт зданий и деревьев.
Скoрoсть ветра измеряется на высoте 10 м (на урoвне рoста челoвека скoрoсть ветра ниже в 1.5-2 раза). Если метеoстанция нахoдится в гoрoде или в лесу, тo скoрoсть ветра занижена на 2-4 м/с пo сравнению с oткрытым местoм. Скoрoсть ветра над акватoриями крупных рек и oзёр, а также на вершинах хoлмoв на 2-5 м/с выше, чем в oбычных услoвиях.
Атмoсфернoе давление в разных тoчках местнoсти мoжет значительнo oтличаться oт давления на метеoстанции, в зависимoсти oт услoвий рельефа (при пoдъёме на 10 м давление пoнижается примернo на 1 мм рт.ст.).